TimeCDT,TemperatureF,Dew PointF,Humidity,Sea Level PressureIn,VisibilityMPH,Wind Direction,Wind SpeedMPH,Gust SpeedMPH,PrecipitationIn,Events,Conditions,WindDirDegrees,DateUTC
12:53 AM,60.1,35.1,39,30.03,10.0,NE,3.5,-,N/A,,Clear,40,2013-03-20 05:53:00
1:53 AM,59.0,36.0,42,30.04,10.0,North,4.6,-,N/A,,Partly Cloudy,10,2013-03-20 06:53:00
2:53 AM,57.9,36.0,44,30.04,10.0,North,8.1,-,N/A,,Overcast,10,2013-03-20 07:53:00
3:53 AM,55.9,36.0,47,30.05,10.0,North,9.2,-,N/A,,Mostly Cloudy,10,2013-03-20 08:53:00
4:53 AM,55.0,35.1,47,30.06,10.0,North,9.2,-,N/A,,Clear,10,2013-03-20 09:53:00
5:53 AM,55.0,34.0,45,30.11,10.0,North,10.4,-,N/A,,Clear,10,2013-03-20 10:53:00
6:53 AM,54.0,33.1,45,30.13,10.0,North,6.9,-,N/A,,Scattered Clouds,10,2013-03-20 11:53:00
7:53 AM,53.1,33.1,47,30.11,10.0,East,5.8,-,N/A,,Overcast,90,2013-03-20 12:53:00
8:53 AM,53.1,35.1,50,30.16,10.0,North,11.5,-,N/A,,Overcast,350,2013-03-20 13:53:00
9:53 AM,53.1,35.1,50,30.17,10.0,NNE,5.8,-,N/A,,Clear,20,2013-03-20 14:53:00
10:53 AM,54.0,34.0,47,30.17,10.0,NNE,4.6,-,N/A,,Clear,20,2013-03-20 15:53:00
11:53 AM,55.9,35.1,45,30.17,10.0,NNW,6.9,-,N/A,,Clear,340,2013-03-20 16:53:00
12:53 PM,60.1,37.9,44,30.16,10.0,North,9.2,-,N/A,,Clear,360,2013-03-20 17:53:00
1:53 PM,64.0,33.1,31,30.12,10.0,North,12.7,24.2,N/A,,Clear,10,2013-03-20 18:53:00
2:53 PM,66.0,30.0,26,30.08,10.0,North,16.1,20.7,N/A,,Clear,350,2013-03-20 19:53:00
3:53 PM,66.9,21.0,17,30.06,10.0,North,17.3,25.3,N/A,,Clear,10,2013-03-20 20:53:00
4:53 PM,66.9,23.0,19,30.04,10.0,North,12.7,18.4,N/A,,Clear,350,2013-03-20 21:53:00
5:53 PM,66.0,23.0,20,30.04,10.0,North,9.2,-,N/A,,Clear,360,2013-03-20 22:53:00
6:53 PM,62.1,25.0,24,30.05,10.0,NNW,9.2,-,N/A,,Clear,340,2013-03-20 23:53:00
7:53 PM,55.0,25.0,31,30.06,10.0,NNW,6.9,-,N/A,,Clear,330,2013-03-21 00:53:00
8:53 PM,54.0,26.1,34,30.06,10.0,North,3.5,-,N/A,,Clear,350,2013-03-21 01:53:00
9:53 PM,52.0,26.1,37,30.08,10.0,NNW,4.6,-,N/A,,Clear,340,2013-03-21 02:53:00
10:53 PM,50.0,26.1,39,30.08,10.0,North,4.6,-,N/A,,Clear,360,2013-03-21 03:53:00
11:53 PM,50.0,25.0,38,30.07,10.0,North,4.6,-,N/A,,Clear,10,2013-03-21 04:53:00